Volgograd

URWW, Airport temperature: 25°C, qnh:1014 hPa.

 

Volgograd International Airport (Gumrak)

IATA: VOG, ICAO: URWW

Charts: AIP,  Jeppesen

Scenery:
fs9        fsx        x-plane

МЕТАR:  URWW 160600Z 14006MPS CAVOK 25/11 Q1014 R06/010070 NOSIG

Volgograd International Airport (Russian: Международный Аэропорт Волгоград) (IATA: VOG, ICAO: URWW) is an airport located 15 km northwest of the city of Volgograd in Russia.

The runway has a length of 3280 m and a width of 45 m Accepts aircraft of type AN-2,12,24,26,140,148;. Yak-40.42; IL-18,76,114; Tu-134,154,204 and its modifications; RRJ-95B and its modifications; A-319, 320, 321 and their modifications; B-737,757 and their modifications; B-767-200 (200ER); B-767-300 (300ER); SAAB-2000; SSJ-100; CRJ-100/200; ATR-42,72 aircraft types III and IV classes and all types of helicopters.